Wetbulb
76.25 77.08 76.25 75.45 73.65 72.85 72.47 72.68 73.38 74.27 74.27 74.12 74.18 74.08 73.49 73.77 73.86 73.86 74.42 74.56 75.12 75.33 75.52 75.97 75.77 76.34 75.69 75.18 75.04 74.92 74.78 74.60 74.52 74.66 74.72 74.89 74.79 74.83 74.63 74.63 74.73 74.80 75.01
75.95 76.68 76.52 74.66 72.58 73.31 72.78 73.94 73.12 73.39 73.41 73.32 72.51 73.72 74.17 74.10 74.28 74.18 74.71 75.31 75.28 75.49 75.68 75.91 76.24 76.38 76.35 76.13 75.51 75.36 75.21 75.44 75.26 74.76 75.06 75.84 76.16 75.85 74.99 75.12 74.87 75.05 75.17
76.47 76.80 76.75 74.89 74.25 73.41 72.70 74.19 72.95 72.93 74.01 73.43 73.17 73.05 73.31 74.84 74.85 75.25 75.23 75.28 75.30 75.35 75.51 76.01 77.00 76.50 76.18 76.34 76.23 76.75 76.57 76.38 76.39 76.27 75.98 76.22 76.37 76.45 76.21 76.18 75.47 75.75 75.66
76.35 75.85 74.78 74.98 75.73 74.07 74.46 72.20 73.93 72.94 73.80 73.96 73.08 73.51 73.53 74.34 74.88 75.25 75.20 75.28 75.43 74.81 75.44 75.75 75.78 75.59 75.85 75.63 76.66 76.19 76.38 76.78 76.71 76.82 76.82 76.83 76.88 76.86 76.30 76.33 76.38 76.25 76.08
75.94 75.68 75.23 75.51 76.39 75.16 74.70 74.40 73.90 73.30 73.48 73.91 73.57 73.78 73.87 74.04 74.29 74.67 74.59 75.16 75.54 75.41 75.25 75.94 75.53 75.48 75.25 75.51 76.29 76.77 76.68 76.50 76.44 76.65 76.85 76.98 77.01 76.68 76.88 76.80 76.65 76.43 76.45
75.84 75.68 74.79 76.36 75.82 75.35 74.52 74.32 74.42 74.84 74.15 74.69 71.96 71.61 73.17 73.92 72.62 74.15 74.56 74.97 75.19 75.43 75.57 75.98 75.71 75.19 75.76 76.43 76.61 76.61 76.88 76.73 76.50 76.60 76.78 76.83 76.75 76.83 76.73 76.92 76.69 76.35 76.49
75.63 75.77 75.23 75.51 74.71 74.56 75.06 75.25 74.60 73.97 73.13 73.99 72.34 71.36 72.85 72.86 72.16 74.40 74.68 74.59 74.46 74.92 75.55 75.54 76.04 75.47 75.21 75.81 75.77 76.34 76.94 77.21 76.96 76.79 76.57 76.58 76.62 76.49 76.49 76.41 76.06 76.06 76.14
76.26 75.64 75.38 75.21 75.61 74.67 74.96 74.84 74.24 72.80 72.62 73.70 71.82 71.23 68.87 70.54 71.01 73.63 73.49 73.58 74.21 74.74 74.84 75.40 75.85 76.02 75.76 75.37 75.48 75.89 75.98 76.45 77.18 77.25 77.17 76.55 76.65 76.34 76.39 76.15 75.82 75.95 75.90
76.48 76.75 76.16 75.61 75.82 75.49 75.22 76.40 74.88 73.55 72.39 72.91 73.58 73.00 68.56 68.34 70.18 72.77 73.29 72.80 73.93 73.51 73.69 73.82 74.69 76.05 76.18 75.95 75.99 75.92 75.99 75.58 76.82 77.45 77.61 77.00 76.33 76.59 76.54 76.25 75.84 75.74 75.64
73.88 75.32 76.62 76.07 75.96 75.73 75.29 74.91 75.13 74.22 73.85 71.57 72.39 73.45 73.37 72.00 68.42 68.54 73.31 73.20 74.14 74.17 74.83 74.45 75.09 74.71 75.83 76.02 76.44 76.01 76.01 75.72 75.85 76.51 77.21 77.37 76.96 77.00 77.02 76.74 76.18 75.85 75.43
73.80 72.51 73.70 74.70 75.67 75.47 75.72 75.62 74.77 74.34 73.50 73.06 72.75 72.30 71.50 71.99 71.69 69.37 67.83 72.64 73.61 73.71 74.53 74.99 75.05 75.47 74.53 75.99 73.53 75.32 75.12 75.22 75.32 75.93 76.12 76.65 77.15 77.26 77.71 77.36 76.80 76.42 76.27
72.79 74.05 73.42 74.25 75.39 75.64 75.02 75.00 75.60 74.09 74.14 74.07 73.03 72.80 72.90 71.44 70.49 69.93 69.20 70.22 70.59 72.51 74.19 74.98 74.97 75.09 74.68 74.98 74.69 74.71 74.57 74.60 74.52 74.79 75.06 75.62 75.93 76.32 77.03 76.82 77.05 77.12 77.21
71.80 73.12 74.13 73.29 73.89 74.26 74.05 74.58 74.58 73.81 73.42 73.09 73.32 72.44 72.92 72.21 72.67 73.15 73.24 69.93 70.24 71.95 72.56 74.81 75.42 75.66 75.40 75.78 74.10 74.79 74.55 73.49 73.44 73.15 73.23 73.94 74.90 75.64 76.53 76.65 76.81 77.29 77.48
72.41 73.45 71.95 71.18 71.38 72.37 73.27 74.97 74.16 73.73 74.69 73.99 73.84 72.93 72.60 71.80 71.84 71.47 71.54 73.01 69.22 70.27 71.66 72.87 74.86 75.24 75.69 75.66 74.08 74.10 74.76 72.41 72.18 71.66 71.64 71.89 72.52 73.48 74.34 74.74 75.52 76.03 76.22
72.14 73.33 72.96 71.37 70.50 70.44 71.33 69.98 71.42 71.08 72.26 73.84 74.18 74.35 73.73 74.99 74.50 73.97 74.66 74.67 69.16 66.78 67.77 72.22 72.17 75.81 75.79 75.98 75.88 75.93 75.73 72.83 71.43 71.19 70.45 70.04 70.52 71.14 72.05 72.83 72.95 73.23 74.01
73.12 72.93 73.16 72.24 71.45 70.08 69.46 69.92 71.37 71.56 71.35 72.78 73.77 74.72 74.91 74.40 75.62 74.76 74.35 73.55 73.08 71.06 68.64 72.17 73.06 74.62 75.87 75.73 75.79 75.79 75.75 72.86 71.12 70.24 69.81 69.37 69.64 70.33 70.87 71.22 71.33 71.23 71.85
73.74 73.67 73.52 72.96 72.58 71.59 71.91 70.29 71.37 70.87 70.08 70.70 73.07 74.37 74.52 75.01 75.81 76.09 74.60 73.93 73.13 73.07 70.25 71.46 73.67 75.15 76.03 76.19 76.31 76.30 76.30 75.86 75.16 69.74 69.55 69.17 68.75 69.06 69.71 70.37 70.17 70.45 70.82
72.96 72.96 73.61 73.50 73.18 71.76 72.63 71.81 69.19 69.24 69.00 69.36 70.87 71.75 71.81 73.98 74.10 74.40 73.91 73.85 72.54 74.19 72.42 71.06 72.37 73.56 74.76 75.92 76.28 75.92 75.46 75.16 75.95 72.29 69.44 68.68 68.04 67.95 67.90 67.99 68.08 68.24 68.33
72.00 71.95 71.86 71.96 72.85 73.36 73.21 71.93 70.82 69.66 69.77 70.18 70.75 70.44 70.68 71.85 71.89 73.51 73.62 73.19 73.15 74.53 72.94 71.01 71.22 72.60 73.95 74.81 74.83 75.79 75.67 76.20 75.37 72.39 68.42 67.70 67.30 67.12 66.69 66.13 65.81 65.31 65.05
71.79 71.90 72.03 71.82 71.77 73.56 73.66 72.72 72.41 72.67 72.35 70.87 70.75 70.75 70.19 70.24 70.32 71.93 71.65 70.95 71.95 72.78 71.77 71.14 71.55 71.07 71.58 74.12 74.45 72.88 76.06 74.90 74.08 74.72 73.26 71.65 70.86 68.69 67.05 65.64 65.21 64.89 62.89
71.97 71.99 71.46 71.12 70.99 70.75 71.25 71.16 71.48 71.65 71.86 71.99 72.23 71.23 70.49 70.53 70.46 70.39 72.40 70.93 72.12 72.90 70.49 71.06 71.12 73.81 72.06 73.94 72.27 75.31 74.92 77.20 76.40 74.31 73.77 75.13 75.45 75.54 74.76 67.36 70.59 67.19 64.22
70.47 70.14 69.37 69.24 68.81 67.80 65.19 65.69 67.40 69.57 70.48 70.21 70.28 71.91 72.56 71.46 71.14 68.71 68.27 68.69 71.58 73.02 72.32 70.71 70.55 68.74 69.12 71.07 74.51 74.77 75.04 72.80 70.82 74.93 76.71 73.24 75.00 74.79 75.62 76.45 71.08 67.81 64.37
69.24 68.65 68.73 68.86 68.33 68.75 64.27 63.67 64.92 68.17 68.70 69.20 70.04 70.41 70.49 70.14 70.94 71.94 70.04 66.91 67.59 67.48 68.84 73.35 72.02 71.35 69.36 70.80 70.77 71.66 73.09 72.96 72.17 73.25 73.60 72.18 74.30 73.61 75.36 75.34 66.68 65.18 63.82
68.66 68.17 68.27 68.41 68.29 68.14 62.64 61.71 63.10 68.04 68.78 69.60 70.10 70.28 70.34 70.61 71.64 71.00 71.62 72.01 73.33 74.18 73.48 72.19 69.58 72.27 71.67 72.33 72.38 72.17 72.73 71.88 73.02 73.69 73.37 69.53 72.60 71.55 73.76 73.67 65.27 64.76 62.89
68.44 67.90 68.10 67.91 67.52 67.83 61.97 60.21 61.95 65.75 66.87 68.77 70.37 71.05 70.78 70.65 67.36 65.35 70.43 70.31 70.64 71.20 69.15 65.52 65.90 66.39 66.12 65.91 68.42 71.46 68.74 68.08 69.51 70.88 73.62 70.83 71.68 70.65 71.02 71.38 71.49 62.44 60.17
67.49 67.11 66.83 67.11 64.98 66.26 61.52 59.36 60.22 64.06 64.68 66.30 68.80 69.48 65.04 66.67 62.79 62.08 69.44 70.12 68.75 68.87 70.62 70.99 71.05 69.13 67.07 69.90 65.10 70.55 71.41 69.23 68.78 68.13 71.77 69.47 68.36 68.86 68.69 71.70 71.95 70.26 68.27
MSLP
1018.32 1018.51 1018.58 1018.73 1018.94 1019.17 1019.23 1019.18 1018.95 1018.66 1018.75 1019.05 1019.11 1019.11 1019.07 1019.09 1019.34 1019.43 1019.43 1019.91 1020.16 1020.29 1020.42 1020.50 1020.64 1020.81 1021.11 1021.33 1021.53 1021.72 1021.96 1022.23 1022.38 1022.49 1022.65 1022.80 1022.90 1023.02 1023.15 1023.25 1023.35 1023.48 1023.59
1018.12 1018.17 1018.16 1018.37 1018.73 1018.90 1018.98 1018.67 1018.61 1018.43 1018.44 1018.53 1018.68 1018.80 1018.77 1018.79 1018.92 1019.10 1019.00 1018.99 1019.62 1019.80 1019.93 1020.03 1020.10 1020.40 1020.68 1020.91 1021.14 1021.37 1021.62 1021.82 1022.03 1022.19 1022.24 1022.40 1022.56 1022.71 1022.81 1023.01 1023.08 1023.13 1023.26
1017.71 1017.89 1017.93 1017.92 1018.31 1018.60 1018.81 1018.47 1018.68 1018.75 1018.25 1018.16 1018.26 1018.22 1018.32 1018.37 1018.36 1018.58 1018.72 1018.60 1018.49 1019.19 1019.36 1019.57 1019.68 1019.90 1020.15 1020.35 1020.57 1020.88 1021.09 1021.36 1021.57 1021.74 1021.89 1022.08 1022.20 1022.40 1022.52 1022.62 1022.73 1022.86 1022.97
1017.67 1017.68 1017.67 1017.51 1017.66 1018.23 1018.10 1018.49 1018.14 1018.12 1018.00 1017.92 1017.85 1017.74 1017.68 1017.83 1017.83 1017.95 1018.09 1018.16 1018.10 1018.06 1018.55 1018.87 1019.17 1019.47 1019.62 1019.78 1019.96 1020.32 1020.50 1020.78 1020.97 1021.22 1021.42 1021.57 1021.74 1021.96 1022.11 1022.18 1022.33 1022.46 1022.58
1017.29 1017.42 1017.22 1016.99 1017.30 1017.40 1017.39 1017.76 1017.81 1017.85 1017.55 1017.52 1017.46 1017.33 1017.30 1017.36 1017.31 1017.15 1017.26 1017.58 1017.51 1017.77 1017.65 1017.92 1018.41 1018.61 1018.85 1019.02 1019.17 1019.45 1019.83 1020.20 1020.36 1020.60 1020.86 1020.97 1021.19 1021.43 1021.60 1021.74 1021.86 1021.96 1022.07
1016.81 1016.98 1016.81 1016.72 1016.91 1017.02 1016.97 1017.22 1017.31 1017.29 1017.19 1017.13 1017.31 1017.24 1017.07 1016.93 1017.20 1016.65 1016.59 1016.89 1016.87 1016.92 1017.02 1017.38 1017.45 1017.63 1018.03 1018.22 1018.43 1018.73 1019.04 1019.41 1019.66 1019.90 1020.15 1020.36 1020.55 1020.81 1021.06 1021.22 1021.39 1021.52 1021.67
1016.35 1016.44 1016.05 1016.12 1016.40 1016.42 1016.26 1016.42 1016.78 1016.84 1016.82 1017.00 1017.20 1016.94 1016.52 1016.60 1016.53 1015.99 1015.85 1015.93 1016.08 1016.31 1016.49 1016.68 1016.96 1016.88 1016.85 1017.52 1017.72 1017.97 1018.29 1018.60 1018.90 1019.14 1019.39 1019.67 1019.85 1020.08 1020.31 1020.55 1020.77 1020.98 1021.17
1015.73 1015.65 1015.54 1015.53 1015.60 1015.75 1015.76 1015.93 1016.21 1016.22 1016.34 1016.60 1016.43 1016.51 1016.04 1016.07 1015.84 1015.41 1015.68 1015.69 1015.55 1015.62 1015.70 1015.95 1016.15 1016.51 1016.49 1016.54 1016.81 1017.25 1017.59 1017.84 1018.14 1018.36 1018.64 1018.94 1019.17 1019.41 1019.62 1019.80 1020.03 1020.25 1020.49
1015.08 1014.86 1014.56 1014.60 1014.90 1014.98 1014.80 1014.87 1015.30 1015.53 1015.60 1016.04 1016.15 1016.00 1015.71 1015.34 1015.10 1014.88 1015.03 1015.29 1015.18 1015.43 1015.38 1015.56 1015.59 1015.67 1015.96 1015.99 1016.21 1016.50 1016.79 1017.04 1017.30 1017.56 1017.82 1018.15 1018.43 1018.68 1018.90 1019.16 1019.37 1019.53 1019.69
1014.58 1014.36 1014.03 1013.89 1014.11 1014.07 1014.05 1014.23 1014.66 1014.99 1015.46 1015.51 1015.93 1015.60 1015.56 1015.47 1015.05 1014.72 1014.64 1014.57 1014.78 1014.85 1014.71 1014.77 1014.60 1014.88 1015.16 1015.26 1015.33 1015.50 1015.72 1016.14 1016.41 1016.75 1017.01 1017.29 1017.55 1017.83 1018.12 1018.36 1018.58 1018.79 1018.92
1014.40 1014.12 1013.78 1013.28 1013.33 1013.42 1013.38 1013.73 1014.03 1014.52 1014.82 1014.88 1015.00 1015.20 1015.32 1015.43 1015.45 1015.08 1014.27 1014.29 1014.26 1014.03 1014.08 1014.07 1013.77 1014.03 1014.70 1014.45 1014.87 1014.69 1015.22 1015.48 1015.68 1015.90 1016.14 1016.42 1016.68 1016.97 1017.17 1017.50 1017.66 1017.91 1018.07
1014.15 1013.80 1013.36 1012.91 1012.83 1012.87 1012.94 1013.23 1013.67 1014.16 1014.30 1014.59 1014.66 1014.66 1014.56 1014.66 1014.89 1014.93 1014.41 1014.02 1013.72 1013.32 1013.30 1013.37 1013.35 1013.34 1013.75 1013.73 1014.04 1014.02 1014.34 1014.72 1015.01 1015.15 1015.41 1015.70 1015.86 1016.09 1016.31 1016.44 1016.70 1017.03 1017.21
1014.21 1013.75 1013.24 1012.76 1012.56 1012.56 1012.65 1012.92 1013.26 1013.64 1013.84 1014.07 1014.02 1014.04 1013.98 1013.92 1014.21 1014.34 1014.16 1013.52 1013.39 1013.01 1012.92 1012.74 1012.60 1012.57 1012.74 1012.92 1013.09 1013.14 1013.52 1013.89 1014.17 1014.34 1014.68 1014.98 1015.24 1015.39 1015.52 1015.63 1015.80 1016.02 1016.22
1014.18 1013.73 1013.38 1012.88 1012.62 1012.47 1012.46 1012.57 1012.83 1013.09 1013.15 1013.37 1013.25 1013.32 1013.23 1013.19 1013.45 1013.64 1013.60 1013.56 1012.97 1012.69 1012.37 1012.20 1011.91 1011.94 1011.96 1012.15 1012.52 1012.67 1012.86 1012.98 1013.32 1013.69 1013.98 1014.29 1014.49 1014.71 1014.88 1015.04 1015.12 1015.29 1015.45
1013.91 1013.72 1013.59 1013.44 1013.11 1012.94 1012.95 1013.08 1012.90 1013.12 1013.00 1012.82 1012.61 1012.55 1012.52 1012.47 1012.43 1012.63 1012.87 1012.94 1013.03 1012.21 1011.68 1011.21 1011.53 1011.49 1011.47 1011.57 1011.68 1011.83 1011.88 1011.92 1012.36 1012.82 1013.18 1013.50 1013.81 1014.04 1014.14 1014.32 1014.52 1014.67 1014.78
1013.94 1013.59 1013.37 1013.40 1013.30 1013.15 1013.08 1013.01 1012.86 1012.78 1012.79 1012.59 1012.29 1011.94 1011.81 1011.65 1011.81 1011.92 1011.97 1012.07 1012.17 1011.82 1011.07 1010.85 1011.12 1011.24 1011.26 1011.15 1011.14 1011.43 1011.30 1011.57 1011.79 1012.04 1012.32 1012.67 1013.00 1013.22 1013.33 1013.53 1013.70 1013.91 1014.00
1013.74 1013.35 1013.09 1012.84 1012.72 1012.72 1012.71 1012.72 1012.57 1012.42 1012.12 1011.88 1011.63 1011.56 1011.33 1011.39 1011.38 1011.46 1011.44 1011.60 1011.56 1011.53 1011.00 1010.70 1010.73 1011.01 1011.07 1010.91 1010.58 1010.71 1010.75 1010.84 1010.60 1011.16 1011.54 1011.81 1012.07 1012.37 1012.57 1012.75 1012.97 1013.15 1013.31
1013.32 1013.05 1012.73 1012.51 1012.33 1012.30 1012.31 1012.13 1012.16 1011.93 1011.82 1011.71 1011.58 1011.14 1011.17 1011.04 1011.01 1011.18 1010.95 1011.15 1011.19 1011.04 1010.91 1010.59 1010.66 1010.49 1010.58 1010.38 1010.40 1010.31 1010.11 1009.79 1009.80 1010.08 1010.60 1010.98 1011.26 1011.45 1011.64 1011.96 1012.20 1012.26 1012.45
1013.16 1012.94 1012.71 1012.42 1012.07 1011.83 1011.67 1011.70 1011.68 1011.62 1011.63 1011.30 1011.13 1011.13 1011.31 1010.92 1010.98 1010.76 1011.03 1010.92 1010.74 1010.91 1010.88 1010.74 1010.26 1010.46 1009.88 1009.93 1009.89 1010.04 1009.84 1009.66 1009.40 1009.47 1009.99 1010.28 1010.59 1010.82 1010.97 1011.08 1011.32 1011.59 1011.87
1012.92 1012.82 1012.67 1012.40 1012.11 1011.77 1011.42 1011.21 1011.29 1011.05 1010.77 1010.70 1010.66 1010.56 1010.36 1010.62 1010.75 1010.48 1010.28 1010.46 1010.21 1010.26 1010.46 1010.47 1010.20 1010.10 1009.88 1009.67 1009.53 1009.33 1009.46 1009.30 1009.11 1008.73 1008.76 1008.97 1009.39 1009.87 1010.05 1010.34 1010.64 1010.93 1011.18
1012.96 1012.81 1012.61 1012.37 1012.21 1011.84 1011.49 1011.53 1011.18 1010.90 1010.71 1010.45 1010.29 1010.09 1010.03 1010.11 1010.07 1010.06 1009.89 1009.91 1009.81 1009.68 1009.85 1009.55 1009.45 1009.47 1009.08 1009.14 1008.90 1008.92 1009.06 1009.01 1008.87 1008.73 1008.52 1008.22 1008.63 1008.90 1008.84 1009.66 1009.69 1010.04 1010.24
1012.85 1012.66 1012.41 1012.28 1012.05 1011.71 1011.65 1011.44 1011.43 1010.77 1010.48 1010.26 1009.83 1009.56 1009.42 1009.42 1009.35 1009.17 1009.31 1009.32 1009.17 1008.99 1009.06 1009.17 1009.15 1009.05 1008.86 1008.95 1008.96 1008.85 1008.78 1008.75 1008.55 1008.25 1008.38 1007.73 1007.46 1007.64 1007.72 1007.91 1008.27 1008.82 1009.43
1012.86 1012.54 1012.31 1012.10 1011.86 1011.73 1011.59 1011.31 1011.16 1010.59 1010.17 1009.89 1009.58 1009.18 1008.84 1008.63 1008.82 1008.70 1008.67 1008.53 1008.53 1008.50 1008.59 1008.64 1008.59 1008.60 1008.51 1008.44 1008.60 1008.60 1008.30 1008.32 1008.02 1008.00 1008.19 1007.42 1007.46 1007.35 1007.12 1007.17 1007.86 1008.35 1008.72
1012.84 1012.70 1012.35 1012.05 1011.67 1011.45 1011.50 1011.39 1011.01 1010.36 1009.88 1009.39 1009.08 1008.86 1008.69 1008.47 1008.35 1008.24 1008.03 1007.85 1007.65 1007.54 1007.88 1008.15 1008.25 1008.01 1008.06 1008.17 1008.36 1008.33 1008.30 1008.16 1007.89 1007.55 1007.95 1007.16 1006.70 1006.96 1007.26 1007.39 1008.08 1008.24 1008.19
1012.61 1012.47 1012.29 1011.95 1011.59 1011.32 1011.31 1011.19 1011.03 1010.21 1009.55 1009.06 1008.61 1008.35 1008.14 1007.89 1007.73 1007.92 1007.78 1007.44 1007.35 1007.19 1007.25 1007.45 1007.62 1007.64 1007.76 1007.85 1008.05 1008.15 1008.02 1007.95 1007.16 1006.75 1007.03 1007.17 1006.70 1006.89 1006.99 1006.82 1007.04 1008.03 1008.25
1012.73 1012.47 1011.98 1011.84 1011.46 1011.26 1011.08 1011.04 1010.84 1010.08 1009.37 1008.85 1008.34 1007.99 1007.89 1007.92 1007.68 1007.81 1007.71 1007.31 1007.00 1006.79 1006.83 1006.95 1007.18 1007.28 1007.37 1007.28 1007.45 1007.53 1007.34 1007.30 1007.21 1006.86 1007.21 1007.60 1006.85 1007.12 1006.48 1006.26 1006.51 1007.08 1007.52
Wind_Speed
8 6 6 4 4 4 4 4 6 7 6 8 8 8 9 9 8 6 5 11 14 15 16 17 16 16 15 15 14 14 13 14 13 12 11 11 10 10 10 10 10 9 9
9 7 6 6 4 3 5 5 5 6 6 6 8 8 9 8 8 9 7 8 15 16 17 18 18 17 17 17 17 16 16 15 15 14 13 12 11 11 11 12 12 11 10
11 9 6 7 4 4 5 7 6 5 6 6 9 8 8 9 9 10 8 8 8 17 17 16 16 16 18 19 19 18 17 16 16 16 15 14 13 12 12 11 11 11 10
12 8 8 9 6 5 6 5 7 6 7 7 7 7 7 8 10 11 9 8 8 7 13 15 16 18 19 20 19 19 19 18 18 18 17 16 15 14 13 12 11 11 11
12 10 9 9 7 7 6 7 7 8 8 7 7 8 8 8 9 9 11 10 11 9 8 10 16 18 19 21 21 19 20 19 19 19 18 17 16 16 14 14 13 12 12
13 11 9 11 8 8 8 8 10 8 7 5 5 5 6 8 7 10 11 10 11 11 11 11 9 11 20 19 19 19 19 20 20 19 19 19 17 17 16 15 14 14 13
12 12 10 10 9 10 11 10 9 9 7 5 4 6 8 8 10 10 10 10 12 11 11 10 8 8 9 20 20 19 19 20 20 20 20 20 18 18 17 17 16 15 15
12 12 13 12 12 10 12 11 11 7 6 6 4 4 4 3 6 11 8 10 13 10 11 12 12 11 11 9 14 21 20 20 20 21 20 20 20 19 19 18 17 16 16
12 14 15 13 12 11 10 10 10 11 7 6 10 5 3 3 2 3 7 9 10 8 8 9 10 12 12 11 10 14 18 21 21 21 20 20 20 20 20 19 19 19 19
12 13 14 14 14 11 11 10 9 10 8 8 4 9 6 3 3 2 2 3 5 8 10 10 12 9 11 11 14 15 14 19 20 21 22 21 20 19 19 20 20 19 20
9 10 12 13 13 11 12 10 10 11 8 9 9 4 7 7 7 7 8 3 3 5 6 7 9 10 12 13 8 13 17 16 18 20 21 22 22 22 21 22 21 21 20
6 9 10 10 10 10 11 10 10 9 10 9 8 7 6 4 7 7 8 8 7 6 5 6 7 8 10 9 13 15 17 20 19 18 18 20 21 20 21 22 21 21 20
7 9 10 7 7 8 8 9 10 9 9 9 10 8 7 6 3 6 6 8 8 5 5 6 7 7 8 9 9 15 17 17 18 19 18 18 18 19 20 19 20 21 21
7 10 8 5 3 4 6 8 7 8 9 10 12 11 8 8 8 8 7 6 9 7 6 10 5 6 6 7 10 10 13 15 16 16 17 18 18 18 19 19 18 17 17
6 7 6 3 1 2 5 4 3 4 5 8 10 11 10 8 8 9 8 8 6 7 8 6 5 4 4 5 7 9 11 11 16 17 17 16 16 17 19 17 16 14 14
7 7 5 4 4 4 3 4 4 4 4 5 6 8 9 9 8 8 8 9 9 10 12 6 6 6 5 6 6 9 10 7 12 15 16 16 17 18 18 17 16 16 17
7 8 5 4 4 5 7 6 3 4 3 3 4 7 8 9 6 7 8 8 9 9 12 8 8 7 9 8 7 8 8 9 9 16 15 15 16 16 17 18 16 17 17
7 8 8 5 6 5 9 8 5 5 4 3 5 5 5 6 8 6 8 9 7 10 10 13 9 8 9 8 8 8 7 7 8 10 13 14 16 17 16 15 16 13 12
7 7 7 7 7 6 8 7 7 5 5 4 4 4 7 4 6 5 7 8 8 7 7 9 9 5 8 7 7 8 7 7 7 7 9 11 12 14 15 14 13 13 13
5 6 7 7 8 8 8 3 6 9 8 4 6 6 6 8 9 7 6 7 7 9 9 8 9 7 7 7 6 7 6 7 8 7 8 8 9 12 13 13 12 13 14
5 6 7 8 8 7 5 8 8 6 6 6 7 8 8 10 15 12 7 7 7 8 7 8 6 7 8 7 9 5 5 5 6 7 6 8 9 9 10 12 11 16 15
6 7 9 9 9 7 9 10 10 8 8 9 8 7 6 7 9 8 12 14 12 8 9 7 7 7 7 6 7 7 5 5 4 4 5 9 9 9 9 9 13 10 15
7 9 9 9 9 10 8 10 11 9 9 9 10 10 9 7 7 7 8 9 10 12 12 9 10 8 6 6 4 8 8 7 7 4 4 7 5 9 9 8 10 12 12
7 8 9 8 8 7 7 9 11 9 9 11 11 10 10 10 10 8 7 7 8 7 9 8 8 10 7 6 8 5 6 5 7 7 5 8 6 7 4 6 4 7 9
8 8 9 9 8 8 8 10 9 10 11 12 10 10 10 10 9 6 7 8 8 8 6 8 9 8 7 6 6 5 5 5 8 9 7 8 6 7 5 7 6 5 4
9 9 10 10 8 8 9 9 8 9 11 9 9 7 7 9 9 6 9 8 9 8 7 6 5 7 8 8 10 10 7 7 5 2 5 5 4 4 6 6 8 6 5
Wind_Direction
247 249 226 232 225 230 261 232 239 234 230 219 225 236 240 238 238 235 235 219 229 229 228 230 233 227 225 227 226 220 217 215 215 214 216 216 213 216 219 222 225 226 230
252 249 245 233 215 214 243 242 243 239 240 237 229 228 240 237 232 233 235 230 222 232 234 233 230 229 225 225 227 226 223 223 220 218 220 222 226 223 228 231 232 230 232
254 256 257 254 228 211 226 247 233 236 234 232 239 234 236 234 237 235 236 245 224 223 236 231 227 224 226 229 230 225 222 222 224 221 219 222 226 231 229 233 232 232 231
258 255 257 256 243 225 241 227 234 239 234 229 235 233 234 240 239 238 238 235 231 234 208 231 227 229 228 228 229 231 230 224 223 223 221 222 225 229 230 230 229 227 228
259 251 253 260 245 235 231 234 228 228 231 224 233 234 235 243 245 239 235 234 231 227 235 214 225 228 228 231 230 229 231 228 228 230 226 223 226 230 231 232 226 230 230
263 246 250 257 233 241 233 231 237 219 238 228 223 256 260 251 226 242 237 234 236 236 237 235 232 226 224 228 229 228 230 232 231 229 230 225 223 226 226 225 227 228 227
260 250 247 247 234 233 234 219 232 236 227 225 240 241 249 230 233 238 228 232 234 235 238 236 233 234 218 221 227 226 227 230 233 231 227 227 223 225 226 226 224 226 230
259 249 247 250 236 236 229 221 214 216 234 211 234 252 271 211 234 232 224 228 235 235 237 233 235 233 231 230 224 225 228 228 231 232 229 227 223 224 227 226 226 228 231
290 267 254 245 243 235 237 214 210 214 223 203 223 230 211 246 293 163 216 225 239 238 249 238 233 233 232 236 234 227 227 223 226 229 230 227 227 225 226 228 227 228 229
292 281 264 252 242 237 235 225 204 225 226 229 212 232 252 294 274 282 178 207 223 244 239 238 245 234 231 231 228 235 221 218 223 223 225 226 226 223 224 227 229 229 226
291 293 279 256 241 231 230 222 204 208 214 236 230 197 224 236 247 258 274 257 229 243 246 246 242 237 227 233 226 234 216 223 222 224 223 223 226 228 230 232 231 232 231
323 315 289 272 247 228 220 215 213 203 214 225 224 224 210 188 209 217 241 261 269 274 262 250 245 239 237 233 236 228 217 221 222 225 223 224 229 228 233 237 234 235 232
334 341 333 298 265 227 205 199 205 208 218 219 216 222 221 217 206 251 245 261 264 261 259 248 251 247 238 232 240 232 221 218 220 218 220 221 226 227 234 240 238 233 229
331 341 341 346 340 207 192 184 192 202 206 217 223 220 215 216 211 219 224 227 257 248 251 262 245 238 244 238 232 225 237 212 219 216 215 220 224 228 234 240 243 235 231
323 326 339 307 320 170 178 170 195 208 218 234 233 230 225 229 224 227 223 231 212 246 256 241 252 209 240 237 233 231 232 224 211 214 217 218 225 230 234 233 234 228 225
329 314 306 293 243 222 243 244 214 203 208 237 242 237 232 234 222 228 229 228 228 250 262 259 243 257 257 260 233 234 242 240 207 213 218 219 224 230 231 231 227 226 225
358 359 319 295 303 260 230 235 236 263 250 270 279 268 265 252 228 225 227 232 234 235 251 255 261 261 259 249 242 234 238 237 235 205 215 219 221 224 225 229 230 226 222
17 12 21 349 296 252 243 238 229 221 222 270 297 315 281 283 254 229 233 225 222 237 248 259 255 246 245 256 267 256 245 235 243 187 207 212 215 216 218 219 223 224 223
4 10 15 7 349 318 256 247 244 246 258 245 251 275 273 284 261 245 244 239 232 247 242 260 265 245 260 255 254 249 241 243 238 206 207 213 212 210 211 211 216 214 219
351 350 353 355 354 352 11 326 272 273 263 274 291 276 283 281 275 250 225 246 244 247 227 235 252 253 254 253 249 258 246 235 238 237 222 251 205 217 220 215 216 215 220
344 345 341 343 341 336 1 346 339 328 317 296 255 223 230 240 245 249 260 240 232 240 239 249 249 247 244 245 241 240 236 246 245 239 247 237 217 218 215 217 234 222 219
327 328 333 332 328 323 346 330 329 314 305 300 295 289 268 256 263 244 235 233 238 238 240 228 235 235 241 251 267 249 245 248 261 199 231 241 238 225 225 214 201 210 206
325 330 329 330 326 319 338 327 332 307 297 287 282 280 278 266 257 267 261 237 230 227 239 254 247 235 234 228 223 253 240 239 249 218 223 244 201 243 234 228 177 195 202
322 321 315 320 321 319 328 325 334 322 300 286 273 267 263 266 263 262 270 263 263 245 223 223 226 254 250 260 245 254 266 252 262 248 232 255 224 243 219 234 202 223 201
313 309 304 304 307 308 322 321 335 322 320 300 290 281 276 273 267 240 263 263 267 262 242 233 243 255 254 248 234 225 219 215 256 247 201 249 240 251 225 217 193 183 200
297 299 295 297 297 292 314 313 332 323 313 317 302 294 254 265 294 239 253 261 266 263 260 250 233 232 229 227 208 221 225 225 232 271 193 192 173 207 232 213 213 191 186